Regional Weather Roundup
Issued by NWS Bismarck, ND

Home | Current Version | Previous Version | Text Only | Print | Product List | Glossary On
Versions: 1 2 3 4 5 6 7 8 9 10 11 12 13 14 15 16 17 18 19 20 21 22 23 24 25 26 27 28 29 30 31 32 33 34 35 36 37 38 39 40 41 42 43 44 45 46 47 48 49 50
000
ASUS43 KBIS 230710
RWRBIS

NWR BROADCAST TEXT
NATIONAL WEATHER SERVICE BISMARCK ND
200 AM CDT MON OCT 23 2017

NOTE: "FAIR" INDICATES FEW OR NO CLOUDS BELOW 12,000 FEET WITH NO
SIGNIFICANT WEATHER AND/OR OBSTRUCTIONS TO VISIBILITY.


CITY           SKY/WX    TMP DP  RH WIND       PRES   REMARKS
WILLISTON        N/A    N/A N/A N/A MISG      29.87R
MINOT          CLOUDY    49  33  54 W24G30    29.73R
MINOT AFB      MOCLDY    46  34  62 NW21G31   29.71R
BISMARCK       CLOUDY    52  40  63 NW15      29.79R
DICKINSON      CLOUDY    47  36  65 W29G41    29.86R
GARRISON         N/A     47  35  63 NW16      29.77R
HETTINGER ARPT CLEAR     45  35  68 W20G30    29.93R
JAMESTOWN      CLOUDY    54  40  59 W22G30    29.68R
CARRINGTON     FAIR      52  43  71 W22G30    29.69R
LINTON           N/A     50  37  62 W16G23    29.83R
TIOGA          FAIR      45  32  61 W16G23    29.82R
$$

CITY           SKY/WX    TMP DP  RH WIND       PRES   REMARKS
GRAND FORKS    LGT RAIN  56  48  74 W21G30    29.57R
GRAND FORKS AF LGT RAIN  54  48  80 W16G30    29.58R
DEVILS LAKE    CLOUDY    51  36  56 W21G26    29.63R
FARGO          CLOUDY    50  40  68 SW8       29.63F
CANDO          FAIR      48  37  66 W20G26    29.63R
CAVALIER       FAIR      54  41  62 W14G20    29.51S
GWINNER        SUNNY     57  41  54 W15       29.70R
ROLLA          FAIR      46  36  66 NW17G24   29.61R
WALHALLA       FAIR     N/A N/A N/A W15G24    29.52S
$$

CITY           SKY/WX    TMP DP  RH WIND       PRES   REMARKS
ABERDEEN       PTCLDY    52  46  80 W13       29.78R
MOBRIDGE       CLEAR     51  42  71 W12       29.83R
BUFFALO          N/A     47  31  53 NW24      29.93R
RAPID CITY     CLOUDY    54  23  30 NW33G43   30.03R
GLASGOW        MOCLDY    43  37  79 W13       30.00R
SIDNEY         MOCLDY    47  37  68 W25G35    29.89R
WOLF POINT     CLOUDY    48  38  68 W18       29.95R
GLENDIVE       CLOUDY    47  36  65 NW32G41   29.97R
MILES CITY     MOCLDY    49  28  44 W16       30.07R
BAKER          MOCLDY    43  36  76 W15       30.01R
$$

CITY           SKY/WX    TMP DP  RH WIND       PRES   REMARKS
BILLINGS       CLEAR     47  25  42 W24G31    30.20R
GREAT FALLS    CLEAR     45  23  42 W24G36    30.19R
REGINA         LGT RAIN  39  37  93 NW15      29.83R
ESTEVAN        PTCLDY    37  34  87 W14       29.80R
$$




USA.gov is the U.S. government's official web portal to all federal, state and local government web resources and services.